Location: ?????
(31.8092°N, 35.2590°E)
Time: 02:35:23
(UTC+00:00)

ASTRO E2 - Pass Details

Date: 20 June 2021
Orbit: 507 x 513 km, 31.4° (Epoch: 25 July)

Event Time Altitude Azimuth Distance (km) Brightness Sun altitude
Rises 19:13:01 0° 271° (W) 2,605 6.8 -24.4°
Reaches altitude 10° 19:15:15 10° 270° (W) 1,721 5.8 -24.7°
Enters shadow 19:17:45 38° 268° (W) 794 3.8 -25.0°
